Location: Bu�n Treun
(12.1333°N, 108.3167°E)
Time: 00:10:25
(UTC+00:00)

Cosmos 1844 - Pass Details

Date: 13 July 2020
Orbit: 822 x 869 km, 70.9° (Epoch: 03 August)

Event Time Altitude Azimuth Distance (km) Brightness Sun altitude
Rises 13:29:58 0° 342° (NNW) 3,408 7.6 -29.9°
Reaches altitude 10° 13:32:25 10° 341° (NNW) 2,465 6.7 -30.4°
Enters shadow 13:37:02 60° 330° (NNW) 953 4.0 -31.3°
